#timestamp,LO_Frequency,Hit,StdDev 
1521644415.6,286046996.5,N
1521644435.4,286046996.5,N
1521644455.3,286046996.5,N
1521644475.1,286046997.7,N
1521644476.0,286046997.7,N
1521644495.8,286046996.2,N
1521644515.7,286046997.0,N
1521644535.5,286046996.8,N
1521644555.3,286046997.4,N
1521644575.2,286046997.6,N
1521644595.0,286046997.6,N
1521644595.9,286046997.6,N
1521644615.8,286046998.8,N
1521644635.6,286047000.0,N
1521644655.4,286047001.2,N
1521644675.3,286047000.6,N
1521644695.1,286047000.6,N
1521644715.8,286047001.0,N
1521644735.7,286046998.2,N
1521644755.5,286046998.4,N
1521644775.4,286047001.1,N
1521644795.2,286046998.7,N
1521644815.0,286046999.7,N
1521644815.9,286046999.7,N
1521644835.8,286047000.8,N
1521644855.6,286046998.3,N
1521644875.5,286047001.1,N
1521644895.3,286046998.8,N
1521644915.1,286046998.5,N
1521644935.9,286046998.7,N
1521644955.7,286047000.5,N
1521644975.5,286046998.3,N
1521644995.4,286047001.1,N
1521645015.2,286046999.0,N
1521645035.1,286047000.8,N
1521645036.0,286047000.8,N
1521645055.8,286047001.1,N
1521645075.6,286047000.8,N
1521645095.5,286047000.5,N
1521645115.3,286047000.4,N
1521645135.1,286047000.0,N
1521645155.9,286047000.2,N
1521645175.7,286047000.2,N
1521645195.6,286047000.4,N
1521645215.4,286047000.3,N
1521645235.2,286047000.8,N
1521645255.1,286047000.6,N
1521645256.0,286047000.6,N
1521645275.8,286046998.5,N
1521645295.6,286046998.2,N
1521645315.5,286047001.2,N
1521645335.3,286046998.2,N
1521645355.2,286047000.0,N
1521645375.0,286047000.6,N
1521645375.9,286047000.6,N
1521645395.8,286047000.1,N
1521645415.6,286047001.1,N
1521645435.4,286047000.5,N
1521645455.3,286047000.6,N
1521645475.1,286047001.0,N
1521645495.8,286047002.7,Y
1521645515.7,286047002.8,P
1521645535.5,286047001.2,N
1521645555.4,286047000.0,N
1521645575.2,286047002.3,N
1521645595.0,286047001.9,N
1521645595.9,286047001.9,N
1521645615.8,286047002.8,N
1521645635.6,286047000.0,N
1521645655.4,286047002.8,N
1521645675.3,286047000.0,N
1521645695.1,286047000.4,N
1521645715.9,286046998.2,N
1521645735.7,286046998.4,N
1521645755.5,286046998.3,N
1521645775.4,286046998.4,N
1521645795.2,286046998.6,N
1521645815.0,286047000.9,N
1521645816.0,286047000.9,N
1521645835.8,286047002.2,N
1521645855.6,286047000.4,N
1521645875.5,286047000.0,N
1521645895.3,286047001.7,N
1521645915.1,286047005.6,Y
1521645935.9,286047002.6,P
1521645955.7,286047000.7,N
1521645975.6,286046998.7,N
1521645995.4,286047001.2,N
1521646015.2,286046998.3,N
1521646035.1,286047001.1,N
1521646036.0,286047001.1,N
1521646055.8,286046999.5,N
1521646075.6,286046997.0,N
1521646095.5,286046999.2,N
1521646115.3,286046999.1,N
1521646135.2,286047001.1,N
1521646155.9,286046998.2,N
1521646175.7,286046999.0,N
1521646195.6,286046999.0,N
1521646215.4,286046999.0,N
1521646235.2,286046998.1,N
1521646255.1,286047000.8,N
1521646256.0,286047000.8,N
1521646275.8,286046998.6,N
1521646295.7,286047002.7,N
1521646315.5,286047001.2,N
1521646335.3,286047001.1,N
1521646355.2,286046999.9,N
1521646375.0,286046998.5,N
1521646375.9,286046998.5,N
1521646395.8,286046998.4,N
1521646415.6,286047000.7,N
1521646435.4,286046998.7,N
1521646455.3,286047001.2,N
1521646475.1,286046998.5,N
1521646495.8,286046998.5,N
1521646515.7,286046998.1,N
1521646535.5,286046999.1,N
1521646555.4,286047000.9,N
1521646575.2,286047000.8,N
1521646595.0,286047000.9,N
1521646595.9,286047000.9,N
1521646615.8,286047001.0,N
1521646635.6,286046999.8,N
1521646655.4,286047001.9,N
1521646675.3,286047002.7,N
1521646695.1,286047000.9,N
1521646715.9,286047000.5,N
1521646735.7,286046998.5,N
1521646755.5,286047001.0,N
1521646775.4,286047002.6,N
1521646795.2,286047002.4,N
1521646815.0,286047002.1,N
1521646816.0,286047002.1,N
1521646835.8,286047002.8,N
1521646855.6,286046998.3,N
1521646875.5,286047001.1,N
1521646895.3,286047000.5,N
1521646915.1,286047001.1,N
1521646935.9,286047001.2,N
1521646955.7,286047000.7,N
1521646975.6,286046998.8,N
1521646995.4,286046999.5,N
1521647015.2,286046997.0,N
1521647035.1,286046998.1,N
1521647036.0,286046998.1,N
1521647055.8,286046998.4,N
1521647075.7,286047000.6,N
1521647095.5,286046998.5,N
1521647115.3,286046999.1,N
1521647135.2,286046999.0,N
1521647155.0,286047001.1,N
1521647155.9,286047001.1,N
1521647175.7,286047002.9,N
1521647195.6,286047019.1,Y
1521647215.4,286047019.8,P
1521647235.3,286047014.7,N
1521647255.1,286047011.5,N
1521647275.8,286047010.3,N
1521647295.7,286047009.1,N
1521647315.5,286047003.1,N
1521647335.4,286047002.8,N
1521647355.2,286047000.5,N
1521647375.0,286046998.8,N
1521647375.9,286046998.8,N
1521647395.8,286046999.4,N
1521647415.6,286046998.3,N
1521647435.4,286046999.0,N
1521647455.3,286046995.0,N
1521647475.1,286046995.7,N
1521647495.9,286046993.9,N
1521647515.7,286046994.1,N
1521647535.5,286046994.2,N
1521647555.4,286046993.1,N
1521647575.2,286046991.0,N
1521647595.1,286046992.8,N
1521647596.0,286046992.8,N
1521647615.8,286046994.6,N
1521647635.6,286046994.5,N
1521647655.5,286046993.7,N
1521647675.3,286046992.4,N
1521647695.1,286046990.9,N
1521647715.9,286046989.0,N
1521647735.7,286046989.1,N
1521647755.6,286046986.9,N
1521647775.4,286046987.5,N
1521647795.2,286046987.2,N
1521647815.1,286046985.3,N
1521647816.0,286046985.3,N
1521647835.8,286046985.5,N
1521647855.6,286046987.7,N
1521647875.5,286046988.4,N
1521647895.3,286046985.8,Y
1521647915.2,286046993.3,P
1521647935.9,286046996.2,P
1521647955.7,286046995.9,N
1521647975.6,286046994.2,Y
1521647995.4,286046999.0,P
